{"data":{"norad_id":53389,"epoch":"2026-09-19T19:18:53.811072Z","epoch_age_seconds":135346,"freshness":"FRESH","line1":"1 53389U 22097B   26262.80478948  .00000383  00000+0  21894-4 0  9995","line2":"2 53389  53.1623 325.0996 0000984  74.5532 285.5580 15.35397846228074","mean_motion":15.35397846,"eccentricity":9.84e-5,"inclination_deg":53.1623,"raan_deg":325.0996,"arg_perigee_deg":74.5532,"mean_anomaly_deg":285.558,"bstar":2.1894e-5,"rev_number":22807,"period_min":93.786766977137,"perigee_km":459.0661909404,"apogee_km":460.41188494466,"semimajor_km":6837.8760379425,"source":"CELESTRAK","updated_at":"2026-09-20T09:00:40.222909Z"}}